Regional Weather Roundup
Issued by NWS

Home | Current Version | Previous Version | Text Only | Print | Product List | Glossary Off
Versions: 1 2 3 4 5 6 7 8 9 10 11 12 13 14 15 16 17 18 19 20 21 22 23 24 25 26 27 28 29 30 31 32 33 34 35 36 37 38 39 40 41 42 43 44 45 46 47 48 49 50

000
ASUS45 KCYS 240410
RWRWY

WYOMING REGIONAL WEATHER ROUNDUP
NATIONAL WEATHER SERVICE CHEYENNE WY
1000 PM MDT SUN APR 23 2017

NOTE:  "FAIR" INDICATES FEW OR NO CLOUDS BELOW 12,000 FEET
WITH NO SIGNIFICANT WEATHER AND/OR OBSTRUCTIONS TO VISIBILITY.

WYZ001-240500-
YELLOWSTONE NATIONAL PARK

CITY           SKY/WX    TMP DP  RH WIND       PRES   REMARKS
LK YELLOWSTONE   N/A     29  29 100 CALM      29.86R
W YELLOWSTONE  NOT AVBL

$$
WYZ002>013-054>058-071-098>099-240500-
NORTHERN WYOMING

CITY           SKY/WX    TMP DP  RH WIND       PRES   REMARKS
JACKSON        MOCLDY    43  34  70 SW7G22    29.83R
CODY           LGT RAIN  46  37  71 N14       29.75R
GREYBULL       FAIR      54  39  57 NW21      29.64R
WORLAND        FAIR      55  38  52 N15       29.66R
SHERIDAN       FAIR      49  43  80 NW30G43   29.67R
BUFFALO        MOCLDY    53  39  59 N21G32    29.66R
GILLETTE       FAIR      56  39  53 SW10      29.60F
HULETT         RAIN      52  45  76 SE16      29.64F
NEWCASTLE      LGT RAIN  52  43  71 NW13G26   29.70R

$$
WYZ014>020-022>026-101>103-240500-
CENTRAL WYOMING

CITY           SKY/WX    TMP DP  RH WIND       PRES   REMARKS
BIG PINEY      FAIR      38  27  64 CALM      29.87R
PINEDALE       FAIR      34  28  80 CALM      29.87R
DUBOIS         FAIR      36  21  55 W9        29.79F WCI  29
LANDER         FAIR      50  29  44 SW5       29.72R
RIVERTON       FAIR      48  33  56 W10       29.73R
CASPER         CLOUDY    53  38  56 SW12      29.70R
DOUGLAS        FAIR      53  38  56 NW9       29.67R

$$
WYZ021-027>030-104>119-240500-
SOUTHERN WYOMING

CITY           SKY/WX    TMP DP  RH WIND       PRES   REMARKS
EVANSTON       FAIR      39  32  76 S8        29.89F WCI  33
KEMMERER         N/A     36  30  80 SW6       29.89R WCI  31
FORT BRIDGER   FAIR      39  38  95 SW9       29.91F WCI  33
ROCK SPRINGS   LGT RAIN  41  36  82 VRB3      29.89R
DIXON            N/A     54  31  41 NW14G21   29.85R
RAWLINS        FAIR      50  30  46 W22G29    29.80R
SARATOGA       FAIR      48  30  49 SW9       29.81R
LARAMIE        FAIR      49  27  42 SW16      29.75F
CHEYENNE       FAIR      50  37  61 SW7       29.73F
TORRINGTON     FAIR      59  35  40 E9        29.61F
PINE BLUFFS    FAIR      46  37  71 S6        29.69F

$$



USA.gov is the U.S. government's official web portal to all federal, state and local government web resources and services.